Regional Weather Roundup
Issued by NWS Albany, NY

Home | Current Version | Previous Version | Graphics & Text | Print | Product List | Glossary On
Versions: 1 2 3 4 5 6 7 8 9 10 11 12 13 14 15 16 17 18 19 20 21 22 23 24 25 26 27 28 29 30 31 32 33 34 35 36 37 38 39 40 41 42 43 44 45 46 47 48 49 50
000
ASUS41 KALY 271310
RWRALY

NEW YORK STATE HOURLY WEATHER ROUNDUP
NATIONAL WEATHER SERVICE ALBANY NY
900 AM EDT MON MAR 27 2017

NOTE: "FAIR" INDICATES FEW OR NO CLOUDS BELOW 12,000 FEET WITH NO
SIGNIFICANT WEATHER AND/OR NO OBSTRUCTIONS TO VISIBILITY.

NYZ032-033-038>043-046>054-057>066-NYZ062>081-082-084-271400-
EAST


CITY           SKY/WX    TMP DP  RH WIND       PRES   REMARKS
ALBANY         RAIN      37  34  89 VRB6      30.09F FOG     WCI  32
GLENS FALLS    LGT RAIN  33  32  96 CALM      30.10F FOG
POUGHKEEPSIE   CLOUDY    35  35 100 CALM      30.11S FOG
NEWBURGH       LGT RAIN  36  36 100 CALM      30.11F FOG
MONTGOMERY     LGT RAIN  37  35  92 NE3       30.09F
WHITE PLAINS   RAIN      38  38 100 N3        30.11S VSB 1/4
ISLIP          FOG       45  45 100 SE9       30.10F VSB 1/4
NEW YORK CITY  LGT RAIN  40  38  93 VRB6      30.12S VSB 1/4
CENTRAL PARK   RAIN      39  39 100 VRB5      30.13F VSB 1/2
$$

NYZ005>009-017-018-044>046-055-056-271400-
CENTRAL


CITY           SKY/WX    TMP DP  RH WIND       PRES   REMARKS
FULTON         LGT RAIN  39  37  92 VRB6      29.96F WCI  35
SYRACUSE       CLOUDY    39  38  96 NE6       29.98S WCI  35
ROME           CLOUDY    36  36 100 SE6       30.04S WCI  31
ELMIRA         CLOUDY    43  39  86 CALM      30.01R
BINGHAMTON     FOG       37  37 100 S8        29.99F VSB 1/2 WCI  31
MONTICELLO     CLOUDY    32  32 100 E5        30.07F WCI  27
$$

NYZ026>034-041>043-087-271400-
NORTH


CITY           SKY/WX    TMP DP  RH WIND       PRES   REMARKS
WATERTOWN      LGT RAIN  43  42  97 S6        29.95S FOG
FORT DRUM      NOT AVBL
MASSENA        CLOUDY    34  33  96 NE6       29.99S FOG     WCI  29
SARANAC LAKE   CLOUDY    37  37 100 SW7       29.94F WCI  32
PLATTSBURGH    CLOUDY    36  33  89 SE15      30.02F WCI  27
$$

NYZ001>004-010>016-019>021-085-271400-
WEST


CITY           SKY/WX    TMP DP  RH WIND       PRES   REMARKS
NIAGARA FALLS  CLOUDY    50  46  86 S7        29.89F
BUFFALO        CLOUDY    51  46  83 S8        29.90S
DUNKIRK        CLOUDY    51  47  86 S10G18    29.91S
JAMESTOWN      CLOUDY    46  43  87 S7        29.92F VSB 3/4
WELLSVILLE     CLOUDY    45  42  89 S7        29.96F
ROCHESTER      CLOUDY    50  43  77 SW15      29.92S
PENN YAN       MOSUNNY   45  38  76 S20G26    29.96S
$$

             KEY
       WCI = WIND CHILL INDEX
       VSB = VISIBILITY
       HX  = HEAT INDEX
$$



USA.gov is the U.S. government's official web portal to all federal, state and local government web resources and services.